| time (UTC) | temp F | wind direction | speed MPH | gust MPH | rain 1hr in | rain 24hr in | rain mn in | humidity % | barometer mb |
| 20260507145017 | 61 | 180 | 4.0 | 9.0 | 0.00 | 0.00 | 0.00 | 66 | 1015.7 |
| 20260507144041 | 61 | 180 | 5.0 | 9.0 | 0.00 | 0.00 | 0.00 | 65 | 1015.7 |
| 20260507143017 | 61 | 180 | 4.0 | 11.0 | 0.00 | 0.00 | 0.00 | 64 | 1015.8 |
| 20260507142018 | 60 | 180 | 4.0 | 8.0 | 0.00 | 0.00 | 0.00 | 68 | 1015.8 |
| 20260507141017 | 60 | 158 | 4.0 | 13.0 | 0.00 | 0.00 | 0.00 | 66 | 1015.9 |
| 20260507140019 | 61 | 180 | 4.0 | 9.0 | 0.00 | 0.00 | 0.00 | 66 | 1016.0 |
| 20260507135041 | 61 | 180 | 5.0 | 11.0 | 0.00 | 0.00 | 0.00 | 66 | 1016.0 |
| 20260507134017 | 60 | 180 | 4.0 | 11.0 | 0.00 | 0.00 | 0.00 | 68 | 1015.9 |
| 20260507133017 | 59 | 180 | 6.0 | 13.0 | 0.00 | 0.00 | 0.00 | 71 | 1015.9 |
| 20260507132019 | 58 | 203 | 4.0 | 8.0 | 0.00 | 0.00 | 0.00 | 71 | 1016.0 |
| 20260507131017 | 58 | 180 | 4.0 | 11.0 | 0.00 | 0.00 | 0.00 | 72 | 1016.0 |
| 20260507130017 | 58 | 180 | 3.0 | 8.0 | 0.00 | 0.00 | 0.00 | 71 | 1016.1 |
| 20260507125017 | 58 | 180 | 5.0 | 10.0 | 0.00 | 0.00 | 0.00 | 70 | 1016.1 |
| 20260507124017 | 58 | 225 | 6.0 | 10.0 | 0.00 | 0.00 | 0.00 | 68 | 1016.1 |
| 20260507123019 | 59 | 225 | 5.0 | 11.0 | 0.00 | 0.00 | 0.00 | 67 | 1016.1 |
| 20260507122017 | 59 | 203 | 6.0 | 11.0 | 0.00 | 0.00 | 0.00 | 68 | 1016.1 |
| 20260507121017 | 60 | 203 | 6.0 | 12.0 | 0.00 | 0.00 | 0.00 | 66 | 1016.1 |
| 20260507120018 | 61 | 180 | 4.0 | 9.0 | 0.00 | 0.00 | 0.00 | 65 | 1016.0 |
| 20260507115017 | 61 | 158 | 6.0 | 12.0 | 0.00 | 0.00 | 0.00 | 65 | 1016.0 |
| 20260507114039 | 61 | 158 | 5.0 | 15.0 | 0.00 | 0.00 | 0.00 | 64 | 1016.1 |
| 20260507113037 | 62 | 158 | 6.0 | 12.0 | 0.00 | 0.00 | 0.00 | 63 | 1016.1 |
| 20260507112018 | 63 | 180 | 6.0 | 13.0 | 0.00 | 0.00 | 0.00 | 62 | 1016.1 |
| 20260507111017 | 62 | 158 | 4.0 | 9.0 | 0.00 | 0.00 | 0.00 | 62 | 1016.0 |
| 20260507110017 | 62 | 135 | 5.0 | 11.0 | 0.00 | 0.00 | 0.00 | 62 | 1016.0 |
| 20260507105017 | 62 | 158 | 5.0 | 9.0 | 0.00 | 0.00 | 0.00 | 61 | 1016.0 |
| 20260507104017 | 62 | 135 | 6.0 | 10.0 | 0.00 | 0.00 | 0.00 | 64 | 1016.1 |
| 20260507103037 | 61 | 135 | 5.0 | 11.0 | 0.00 | 0.00 | 0.00 | 61 | 1016.3 |
| 20260507102017 | 61 | 135 | 5.0 | 9.0 | 0.00 | 0.00 | 0.00 | 63 | 1016.3 |
| 20260507101017 | 61 | 158 | 4.0 | 10.0 | 0.00 | 0.00 | 0.00 | 64 | 1016.3 |
| 20260507100017 | 61 | 113 | 6.0 | 11.0 | 0.00 | 0.00 | 0.00 | 64 | 1016.3 |
| 20260507095017 | 62 | 135 | 5.0 | 14.0 | 0.00 | 0.00 | 0.00 | 62 | 1016.2 |
| 20260507094017 | 62 | 135 | 6.0 | 13.0 | 0.00 | 0.00 | 0.00 | 63 | 1016.3 |
| 20260507093017 | 61 | 135 | 6.0 | 12.0 | 0.00 | 0.00 | 0.00 | 64 | 1016.2 |
| 20260507092017 | 61 | 135 | 6.0 | 11.0 | 0.00 | 0.00 | 0.00 | 66 | 1016.2 |
| 20260507091018 | 60 | 135 | 6.0 | 12.0 | 0.00 | 0.00 | 0.00 | 66 | 1016.2 |
| 20260507090018 | 60 | 113 | 4.0 | 9.0 | 0.00 | 0.00 | 0.00 | 68 | 1016.2 |
| 20260507085017 | 60 | 135 | 5.0 | 9.0 | 0.00 | 0.00 | 0.00 | 68 | 1016.2 |
| 20260507084017 | 60 | 135 | 6.0 | 11.0 | 0.00 | 0.00 | 0.00 | 68 | 1016.2 |
| 20260507083017 | 59 | 135 | 6.0 | 10.0 | 0.00 | 0.00 | 0.00 | 70 | 1016.2 |
| 20260507082017 | 58 | 135 | 5.0 | 9.0 | 0.00 | 0.00 | 0.00 | 72 | 1016.2 |
| 20260507081017 | 58 | 135 | 4.0 | 11.0 | 0.00 | 0.00 | 0.00 | 73 | 1016.1 |
| 20260507080017 | 58 | 135 | 6.0 | 11.0 | 0.00 | 0.00 | 0.00 | 73 | 1016.1 |
| 20260507075018 | 58 | 135 | 4.0 | 9.0 | 0.00 | 0.00 | 0.00 | 73 | 1016.1 |
| 20260507074037 | 59 | 135 | 5.0 | 10.0 | 0.00 | 0.00 | 0.00 | 72 | 1016.0 |
| 20260507073017 | 58 | 113 | 3.0 | 6.0 | 0.00 | 0.00 | 0.00 | 74 | 1016.0 |
| 20260507072018 | 56 | 135 | 2.0 | 8.0 | 0.00 | 0.00 | 0.00 | 78 | 1016.0 |
| 20260507071017 | 55 | 113 | 3.0 | 7.0 | 0.00 | 0.00 | 0.00 | 81 | 1015.9 |
| 20260507070018 | 53 | 113 | 3.0 | 5.0 | 0.00 | 0.00 | 0.00 | 85 | 1015.8 |
| 20260507065017 | 51 | 113 | 3.0 | 7.0 | 0.00 | 0.00 | 0.00 | 89 | 1015.9 |
| 20260507064017 | 49 | 90 | 2.0 | 4.0 | 0.00 | 0.00 | 0.00 | 92 | 1015.8 |
| 20260507063018 | 47 | 90 | 2.0 | 4.0 | 0.00 | 0.00 | 0.00 | 93 | 1015.8 |
| 20260507062016 | 46 | 68 | 2.0 | 5.0 | 0.00 | 0.00 | 0.00 | 92 | 1015.7 |
| 20260507061017 | 45 | 90 | 1.0 | 2.0 | 0.00 | 0.00 | 0.00 | 92 | 1015.7 |
| 20260507060018 | 44 | 0.0 | 0.0 | 0.00 | 0.00 | 0.00 | 92 | 1015.6 | |
| 20260507055041 | 44 | 45 | 1.0 | 2.0 | 0.00 | 0.00 | 0.00 | 91 | 1015.6 |
| 20260507054016 | 43 | 0.0 | 0.0 | 0.00 | 0.00 | 0.00 | 91 | 1015.5 | |
| 20260507053018 | 43 | 0.0 | 0.0 | 0.00 | 0.00 | 0.00 | 91 | 1015.5 | |
| 20260507052016 | 43 | 0.0 | 0.0 | 0.00 | 0.00 | 0.00 | 91 | 1015.5 | |
| 20260507051016 | 43 | 0.0 | 0.0 | 0.00 | 0.00 | 0.00 | 90 | 1015.4 | |
| 20260507050018 | 42 | 45 | 1.0 | 3.0 | 0.00 | 0.00 | 0.00 | 90 | 1015.3 |
| 20260507045018 | 43 | 23 | 1.0 | 3.0 | 0.00 | 0.00 | 0.00 | 90 | 1015.3 |
| 20260507044016 | 43 | 45 | 1.0 | 2.0 | 0.00 | 0.00 | 0.00 | 90 | 1015.3 |
| 20260507043036 | 43 | 23 | 2.0 | 4.0 | 0.00 | 0.00 | 0.00 | 89 | 1015.3 |
| 20260507042016 | 43 | 45 | 2.0 | 4.0 | 0.00 | 0.00 | 0.00 | 89 | 1015.2 |
| 20260507041016 | 43 | 45 | 2.0 | 3.0 | 0.00 | 0.00 | 0.00 | 89 | 1015.2 |
| 20260507040016 | 43 | 45 | 2.0 | 4.0 | 0.00 | 0.00 | 0.00 | 89 | 1015.1 |
| 20260507035016 | 43 | 45 | 2.0 | 3.0 | 0.00 | 0.00 | 0.00 | 89 | 1015.2 |
| 20260507034036 | 43 | 45 | 2.0 | 3.0 | 0.00 | 0.00 | 0.00 | 89 | 1015.2 |
| 20260507033016 | 44 | 23 | 2.0 | 4.0 | 0.00 | 0.00 | 0.00 | 88 | 1015.1 |
| 20260507032016 | 44 | 45 | 2.0 | 3.0 | 0.00 | 0.00 | 0.00 | 88 | 1015.1 |
| 20260507031016 | 44 | 45 | 1.0 | 3.0 | 0.00 | 0.00 | 0.00 | 88 | 1015.1 |
| 20260507030038 | 44 | 23 | 1.0 | 3.0 | 0.00 | 0.00 | 0.00 | 88 | 1015.1 |
| 20260507025016 | 44 | 45 | 2.0 | 3.0 | 0.00 | 0.00 | 0.00 | 88 | 1015.0 |
| 20260507024016 | 45 | 45 | 2.0 | 4.0 | 0.00 | 0.00 | 0.00 | 88 | 1015.0 |
| 20260507023018 | 45 | 23 | 1.0 | 3.0 | 0.00 | 0.00 | 0.00 | 88 | 1014.9 |
| 20260507022016 | 45 | 0.0 | 2.0 | 0.00 | 0.00 | 0.00 | 88 | 1014.9 | |
| 20260507021038 | 45 | 23 | 1.0 | 3.0 | 0.00 | 0.00 | 0.00 | 88 | 1014.9 |
| 20260507020016 | 45 | 0.0 | 0.0 | 0.00 | 0.00 | 0.00 | 87 | 1014.8 | |
| 20260507015016 | 45 | 0.0 | 0.0 | 0.00 | 0.00 | 0.00 | 87 | 1014.7 | |
| 20260507014036 | 45 | 0.0 | 0.0 | 0.00 | 0.00 | 0.00 | 86 | 1014.8 | |
| 20260507013016 | 45 | 0.0 | 0.0 | 0.00 | 0.00 | 0.00 | 86 | 1014.8 | |
| 20260507012018 | 46 | 0.0 | 0.0 | 0.00 | 0.00 | 0.00 | 86 | 1014.8 | |
| 20260507010018 | 46 | 0.0 | 0.0 | 0.00 | 0.00 | 0.00 | 86 | 1014.8 | |
| 20260507005021 | 46 | 0.0 | 0.0 | 0.00 | 0.00 | 0.00 | 85 | 1014.9 | |
| 20260507004016 | 46 | 0.0 | 0.0 | 0.00 | 0.00 | 0.00 | 84 | 1014.8 | |
| 20260507003016 | 47 | 0.0 | 0.0 | 0.00 | 0.00 | 0.00 | 83 | 1014.8 | |
| 20260507002057 | 47 | 0.0 | 0.0 | 0.00 | 0.00 | 0.00 | 83 | 1014.8 | |
| 20260507001017 | 47 | 0.0 | 0.0 | 0.00 | 0.00 | 0.00 | 82 | 1014.9 | |
| 20260507000018 | 48 | 0.0 | 0.0 | 0.00 | 0.00 | 0.00 | 80 | 1015.0 | |
| 20260506235016 | 48 | 0.0 | 0.0 | 0.00 | 0.00 | 0.00 | 79 | 1014.9 | |
| 20260506234017 | 49 | 0.0 | 0.0 | 0.00 | 0.00 | 0.00 | 79 | 1014.9 | |
| 20260506233017 | 49 | 0.0 | 0.0 | 0.00 | 0.00 | 0.00 | 77 | 1014.8 | |
| 20260506232016 | 50 | 0.0 | 0.0 | 0.00 | 0.00 | 0.00 | 76 | 1014.7 | |
| 20260506231017 | 51 | 0.0 | 0.0 | 0.00 | 0.00 | 0.00 | 75 | 1014.7 | |
| 20260506230016 | 51 | 0.0 | 0.0 | 0.00 | 0.00 | 0.00 | 75 | 1014.6 | |
| 20260506225016 | 52 | 0.0 | 0.0 | 0.00 | 0.00 | 0.00 | 74 | 1014.5 | |
| 20260506224017 | 52 | 0.0 | 0.0 | 0.00 | 0.00 | 0.00 | 74 | 1014.6 | |
| 20260506223018 | 52 | 0.0 | 0.0 | 0.00 | 0.00 | 0.00 | 73 | 1014.7 | |
| 20260506222037 | 53 | 0.0 | 0.0 | 0.00 | 0.00 | 0.00 | 73 | 1014.6 | |
| 20260506221016 | 53 | 0.0 | 0.0 | 0.00 | 0.00 | 0.00 | 72 | 1014.5 | |
| 20260506220016 | 53 | 0.0 | 0.0 | 0.00 | 0.00 | 0.00 | 72 | 1014.5 | |
| 20260506215017 | 53 | 0.0 | 0.0 | 0.00 | 0.00 | 0.00 | 72 | 1014.5 | |
| 20260506214017 | 54 | 0.0 | 3.0 | 0.00 | 0.00 | 0.00 | 72 | 1014.5 | |
| 20260506213015 | 54 | 23 | 1.0 | 3.0 | 0.00 | 0.00 | 0.00 | 71 | 1014.5 |
| 20260506212100 | 54 | 0.0 | 2.0 | 0.00 | 0.00 | 0.00 | 71 | 1014.4 | |
| 20260506211017 | 54 | 0.0 | 1.0 | 0.00 | 0.00 | 0.00 | 71 | 1014.3 | |
| 20260506210016 | 54 | 0.0 | 0.0 | 0.00 | 0.00 | 0.00 | 70 | 1014.3 | |
| 20260506205016 | 55 | 0.0 | 0.0 | 0.00 | 0.00 | 0.00 | 70 | 1014.1 | |
| 20260506204015 | 55 | 0.0 | 0.0 | 0.00 | 0.00 | 0.00 | 69 | 1014.1 | |
| 20260506203017 | 55 | 0.0 | 0.0 | 0.00 | 0.00 | 0.00 | 68 | 1014.1 | |
| 20260506202016 | 55 | 0.0 | 0.0 | 0.00 | 0.00 | 0.00 | 66 | 1014.0 | |
| 20260506201015 | 55 | 0.0 | 2.0 | 0.00 | 0.00 | 0.00 | 66 | 1013.9 | |
| 20260506200036 | 56 | 0.0 | 2.0 | 0.00 | 0.00 | 0.00 | 66 | 1013.9 | |
| 20260506195016 | 56 | 45 | 1.0 | 3.0 | 0.00 | 0.00 | 0.00 | 65 | 1013.8 |
| 20260506194019 | 56 | 45 | 1.0 | 3.0 | 0.00 | 0.00 | 0.00 | 64 | 1013.6 |
| 20260506193015 | 56 | 45 | 1.0 | 3.0 | 0.00 | 0.00 | 0.00 | 63 | 1013.4 |
| 20260506192016 | 57 | 45 | 1.0 | 3.0 | 0.00 | 0.00 | 0.00 | 63 | 1013.5 |
| 20260506191036 | 57 | 45 | 2.0 | 4.0 | 0.00 | 0.00 | 0.00 | 62 | 1013.4 |
| 20260506190037 | 57 | 45 | 2.0 | 7.0 | 0.00 | 0.00 | 0.00 | 62 | 1013.3 |
| 20260506185015 | 58 | 23 | 3.0 | 7.0 | 0.00 | 0.00 | 0.00 | 62 | 1013.2 |
| 20260506184015 | 58 | 23 | 3.0 | 7.0 | 0.00 | 0.00 | 0.00 | 61 | 1013.1 |
| 20260506183015 | 58 | 45 | 3.0 | 6.0 | 0.00 | 0.00 | 0.00 | 59 | 1013.1 |
| 20260506182019 | 58 | 0 | 3.0 | 7.0 | 0.00 | 0.00 | 0.00 | 56 | 1013.0 |
| 20260506181017 | 59 | 23 | 4.0 | 10.0 | 0.00 | 0.00 | 0.00 | 54 | 1013.0 |
| 20260506180019 | 59 | 45 | 5.0 | 10.0 | 0.00 | 0.00 | 0.00 | 54 | 1012.8 |
| 20260506175019 | 59 | 23 | 2.0 | 9.0 | 0.00 | 0.00 | 0.00 | 55 | 1012.7 |
| 20260506174019 | 60 | 0 | 3.0 | 8.0 | 0.00 | 0.00 | 0.00 | 54 | 1012.6 |
| 20260506173037 | 60 | 23 | 5.0 | 9.0 | 0.00 | 0.00 | 0.00 | 53 | 1012.6 |
| 20260506172039 | 60 | 45 | 4.0 | 8.0 | 0.00 | 0.00 | 0.00 | 53 | 1012.6 |
| 20260506171017 | 60 | 23 | 2.0 | 4.0 | 0.00 | 0.00 | 0.00 | 54 | 1012.5 |
| 20260506170019 | 61 | 45 | 5.0 | 9.0 | 0.00 | 0.00 | 0.00 | 52 | 1012.5 |
| 20260506165019 | 61 | 23 | 4.0 | 8.0 | 0.00 | 0.00 | 0.00 | 52 | 1012.5 |
| 20260506164019 | 61 | 45 | 4.0 | 10.0 | 0.00 | 0.00 | 0.00 | 50 | 1012.4 |
| 20260506163017 | 61 | 23 | 2.0 | 7.0 | 0.00 | 0.00 | 0.00 | 50 | 1012.4 |
| 20260506162019 | 61 | 23 | 5.0 | 11.0 | 0.00 | 0.00 | 0.00 | 51 | 1012.4 |
| 20260506161017 | 61 | 0 | 3.0 | 7.0 | 0.00 | 0.00 | 0.00 | 49 | 1012.4 |
| 20260506160019 | 61 | 0 | 2.0 | 5.0 | 0.00 | 0.00 | 0.00 | 50 | 1012.4 |
| 20260506155017 | 61 | 0 | 3.0 | 7.0 | 0.00 | 0.00 | 0.00 | 48 | 1012.5 |
| 20260506154019 | 62 | 315 | 2.0 | 5.0 | 0.00 | 0.00 | 0.00 | 49 | 1012.5 |
| 20260506153037 | 62 | 338 | 3.0 | 9.0 | 0.00 | 0.00 | 0.00 | 47 | 1012.5 |
| 20260506152017 | 62 | 0 | 2.0 | 7.0 | 0.00 | 0.00 | 0.00 | 48 | 1012.5 |
| 20260506151017 | 62 | 0 | 3.0 | 8.0 | 0.00 | 0.00 | 0.00 | 46 | 1012.5 |
| 20260506150019 | 62 | 338 | 2.0 | 8.0 | 0.00 | 0.00 | 0.00 | 48 | 1012.5 |